Regional Weather Roundup
Issued by NWS

Home | Current Version | Previous Version | Graphics & Text | Print | Product List | Glossary On
Versions: 1 2 3 4 5 6 7 8 9 10 11 12 13 14 15 16 17 18 19 20 21 22 23 24 25 26 27 28 29 30 31 32 33 34 35 36 37 38 39 40 41 42 43 44 45 46 47 48 49 50
760
ASUS44 KMEG 031500
RWRTN
TENNESSEE HOURLY STATE WEATHER ROUNDUP
NATIONAL WEATHER SERVICE MEMPHIS TN
900 AM CST SAT DEC 03 2016

TNZ002-004-019-021-049-052-054-088>092-031600-
WEST TENNESSEE

CITY           SKY/WX    TMP DP  RH WIND       PRES   REMARKS
MEMPHIS INTL   CLOUDY    47  32  56 E10       30.31R
NWS MEMPHIS      N/A     46 N/A N/A MISG        N/A
JACKSON        CLOUDY    44  33  65 E6        30.33R
DYERSBURG      MOSUNNY  N/A N/A N/A E7        30.33R
UNION CITY     SUNNY     39  34  81 E5        30.34R
PARIS          SUNNY     37  30  75 E9        30.34R WCI  31
LEXINGTON      SUNNY     41  32  70 E6        30.33R
$$

TNZ008-025-027-028-033-062-065-066-031600-
NORTH MIDDLE TENNESSEE

CITY           SKY/WX    TMP DP  RH WIND       PRES   REMARKS
NASHVILLE      CLOUDY    42  32  67 E8        30.34F
CLARKSVILLE    CLOUDY    39  31  72 E8        30.35F WCI  33
SMYRNA         CLOUDY    42  33  70 E8        30.35F
CROSSVILLE     MOSUNNY   36  29  75 NE7       30.31F WCI  30
$$

TNZ061-075-076-078-094-096-097-031600-
SOUTH MIDDLE TENNESSEE

CITY           SKY/WX    TMP DP  RH WIND       PRES   REMARKS
TULLAHOMA      SUNNY     39  30  70 NE5       30.32S
WINCHESTER     SUNNY     39  34  81 N5        30.31F
MCMINNVILLE    SUNNY     39  34  81 NE7       30.32F WCI  34
COLUMBIA       SUNNY     43  41  93 NE8       30.31R
SHELBYVILLE    SUNNY     43  36  75 E6        30.33F
$$

TNZ017-018-042-046-047-031600-
NORTHEAST TENNESSEE

CITY           SKY/WX    TMP DP  RH WIND       PRES   REMARKS
TRI CITIES     CLOUDY    39  29  67 NE7       30.33S WCI  34
$$

TNZ012-013-036-069-073-074-031600-
CENTRAL EAST TENNESSEE

CITY           SKY/WX    TMP DP  RH WIND       PRES   REMARKS
KNOXVILLE      CLOUDY    39  31  72 N10       30.33S WCI  32
OAK RIDGE      CLOUDY    41  30  65 NE3       30.36R
GATLINBURG     SUNNY     34  30  86 CALM      30.34S
$$

TNZ083-085-099-031600-
SOUTHEAST TENNESSEE

CITY           SKY/WX    TMP DP  RH WIND       PRES   REMARKS
CHATTANOOGA    CLOUDY    43  32  65 NE14      30.32S
$$

SKY/WX REPORTED AS FAIR MEANS FEW OR NO CLOUDS BELOW
12 THOUSAND FEET.





USA.gov is the U.S. government's official web portal to all federal, state and local government web resources and services.